Starlink 34577

operational
NORAD ID: 64719 Int'l Des: 2025-142 Owner: SPXS Country: US Constellation: starlink
LEOCIRCULAR

Starlink 34577について

説明を読み込み中...

リアルタイム位置

3D地球を読み込み中...

次回通過

高度履歴

Altitude vs Time

uPlot chart will show altitude changes over time

軌道要素

1 64719U 25142Z 25340.96955838 .00007046 00000-0 63603-3 0 9996
2 64719 70.0008 187.3576 0001681 280.0276 80.0692 14.95902970 25628
Epoch: Dec 6, 2025 • Age: 10 hours

現在のステータス

高度 584.7 km
速度 7.57 km/s
衛星直下点 -13.77°S, 148.45°E
打ち上げ日 Jun 28, 2025
運用期間 0.4 years
タイプ internet

技術仕様

分類 Payload
質量 575.00 kg
乾燥質量 530.00 kg
総質量 575.00 kg
長さ 0.30 m
直径 4.10 m
スパン 29.00 m
形状 Box + pan
製造者 SPXS
バスタイプ Starlink V2MO
フェーズステータス In Orbit
所有者/国 SPXS/US

大規模コンステレーション

Loading constellations...